Terug naar catalogus

DELTA 1 DEB

ActiefLEO
NORAD 7131·DEBRIS·🇺🇸 United States

Gelanceerd Nov 6, 1973 vanaf Vandenberg Space Force Base

Loading…

Volgende Passages (komende 24 uur)

TLE

VersSource: Space-Track

Epoch: Sep 14, 2026, 08:00 UTC

1 07131U 73086CV  26257.33355236  .00000533  00000-0  56232-2 0  9999
2 07131 101.9027 191.6525 0169991 108.2089  42.2254 12.15235594336251

Volg DELTA 1 DEB in realtime met AllMySat

Download on the App Store